Location: Elstree
(51.6403°N, 0.2969°W)
Time: 14:40:44
(UTC+00:00)

DMSP B5D2-2 - Pass Details

Date: 03 March 2021
Orbit: 789 x 807 km, 98.3° (Epoch: 13 April)

Event Time Altitude Azimuth Distance (km) Brightness Sun altitude
Rises 19:45:53 0° 14° (NNE) 3,315 7.3 -19.4°
Reaches altitude 10° 19:48:13 10° 14° (NNE) 2,378 6.5 -19.7°
Maximum altitude 19:53:29 88° 291° (WNW) 801 4.0 -20.5°
Drops below altitude 10° 19:58:42 10° 197° (SSW) 2,352 6.5 -21.3°
Sets 20:01:00 0° 198° (SSW) 3,275 7.3 -21.6°
